[[{"header":{"parameterUnit":"m.s-1","parameterCategory":1,"la1":30.2991,"la2":30.254,"lo1":-89.0895,"lo2":-89.0444,"dy":0.0017,"dx":0.0017,"nx":28,"ny":28,"refTime":"2024-02-14T03:00:00:Z","depth":0,"parameterNumber":2,"parameterNumberName":"U-component_of_WINDS"},"data":[0,0,0,0,0,0,0,0,0,0,0,0,0,0,0,0,0,0,0,0,0,0,0,0,0,0,0,0,0,0,0,0,0,0,0,0,0,0,0,0,0,0,0,0,0,0,0,0,0,0,0,0,0,0,0,0,0,0,0.0268,0.0269,0,0.0284,0.0284,0.0284,0.0276,0.0275,0.0275,0.0274,0.029,0.0291,0.0292,0,0,0,0,0,0,0,0,0,0,0,0,0,0.023,0.0231,0.0268,0.0269,0.0269,0.0284,0.0284,0.0284,0.0276,0.0275,0.0275,0.0274,0.029,0.0291,0.0292,0,0,0,0,0,0,0,0,0,0,0,0,0,0.0246,0.0231,0.0268,0.0266,0.0266,0.0284,0.0284,0.0285,0.0276,0.0275,0.0275,0.0274,0.0289,0.0291,0.0292,0.0312,0,0,0.0296,0.0296,0,0,0,0,0,0,0,0,0.0245,0.0248,0.0266,0.0266,0.0266,0.0277,0.0276,0.0294,0.0276,0.0272,0.0274,0.0274,0.0286,0.0288,0.0292,0.0313,0.0314,0.0296,0.0296,0.0297,0.0297,0,0,0,0,0,0,0,0.0244,0.0247,0.0275,0.0267,0.0267,0.0264,0.0266,0.028,0.0283,0.0272,0.0272,0.0274,0.0286,0.0291,0.0292,0.0314,0.0296,0.0297,0.0297,0.0298,0.0351,0.0352,0,0,0,0,0,0,0.0243,0.0246,0.0274,0.0275,0.0254,0.0265,0.0267,0.0274,0.0282,0.0283,0.0274,0.0273,0.0289,0.0291,0.0293,0.0317,0.0297,0.0298,0.0299,0.0351,0.0351,0.0352,0,0,0,0,0,0,0.0242,0.0246,0.0273,0.026,0.0264,0.0267,0.0275,0.0275,0.028,0.0284,0.0284,0.0279,0.0289,0.0291,0.0307,0.0317,0.0299,0.03,0.035,0.0351,0.0352,0.0365,0,0,0,0,0,0,0.0241,0.0246,0.0254,0.0261,0.0264,0.0288,0.0276,0.0276,0.0282,0.0281,0.0288,0.0289,0.0288,0.0306,0.0309,0.0318,0.0301,0.0349,0.035,0.0351,0.0364,0.0366,0.0369,0,0,0,0,0,0.024,0.0257,0.0254,0.0258,0.0275,0.0289,0.0291,0.029,0.0283,0.0291,0.0293,0.0288,0.0316,0.0307,0.0311,0.0321,0.0348,0.035,0.0351,0.0363,0.0366,0.0369,0,0,0,0,0,0,0.0252,0.0258,0.0255,0.0275,0.0281,0.0287,0.0297,0.0294,0.0302,0.0301,0.03,0.0301,0.0318,0.0321,0.0312,0.0341,0.0331,0.0333,0.0338,0.0341,0.0344,0.0342,0.0302,0,0,0,0,0,0.0257,0.0268,0.0272,0.029,0.0293,0.0295,0.0301,0.0299,0.0306,0.0309,0.0312,0.0319,0.0328,0.0335,0.0344,0.0364,0.0365,0.0373,0.0375,0.0377,0.0379,0.0389,0.0392,0.0357,0.0357,0.0357,0,0,0.0267,0.0272,0.0279,0.0292,0.0297,0.0308,0.0297,0.0309,0.0317,0.0311,0.0326,0.0329,0.0335,0.0353,0.0361,0.0356,0.0389,0.0379,0.0381,0.0382,0.0391,0.0394,0.0397,0.0358,0.0358,0.0358,0,0,0.0291,0.0296,0.031,0.0315,0.0323,0.0323,0.0327,0.0333,0.0334,0.035,0.0345,0.0354,0.0371,0.0376,0.038,0.0405,0.0401,0.0408,0.0421,0.043,0.0433,0.0435,0.0443,0.0446,0.041,0.041,0.041,0,0.0303,0.032,0.0318,0.0331,0.0336,0.033,0.0344,0.0349,0.0359,0.0363,0.0357,0.0377,0.0382,0.04,0.0406,0.041,0.0413,0.0407,0.0433,0.0435,0.0437,0.0445,0.0448,0.0411,0.0411,0.0411,0.0411,0,0.0333,0.0345,0.0355,0.0365,0.0371,0.0385,0.0385,0.0392,0.0389,0.0391,0.0406,0.041,0.042,0.0424,0.0422,0.0442,0.0439,0.0433,0.0423,0.0441,0.0449,0.0452,0.0412,0.0412,0.0411,0.0411,0,0,0.0366,0.0374,0.0378,0.0381,0.0388,0.0397,0.0409,0.0419,0.0424,0.0431,0.0441,0.0455,0.0449,0.0454,0.0453,0.0461,0.0479,0.0454,0.0455,0.0458,0.05,0.0504,0.0508,0.0476,0.0477,0.0477,0.0499,0,0.0391,0.0412,0.0411,0.0431,0.0441,0.0435,0.0446,0.0451,0.0452,0.046,0.0461,0.0471,0.0463,0.0466,0.0474,0.0476,0.0488,0.0474,0.0485,0.0486,0.0484,0.0512,0.0516,0.0537,0.0502,0.0503,0.0503,0,0.0422,0.0429,0.045,0.0455,0.0459,0.0469,0.0476,0.0485,0.049,0.049,0.0495,0.0492,0.0504,0.0493,0.0509,0.05,0.0504,0.0505,0.0506,0.0507,0.0495,0.0513,0.0543,0.0546,0.0508,0.0507,0.0507,0,0.0443,0.0458,0.0472,0.0476,0.0482,0.0488,0.0491,0.0495,0.0501,0.0507,0.0511,0.0519,0.0523,0.0529,0.0528,0.052,0.0544,0.0533,0.0544,0.0544,0.0549,0.0549,0.058,0.0552,0.0552,0.0552,0.0552,0,0.047,0.0483,0.0482,0.0491,0.0505,0.0502,0.0516,0.0518,0.0522,0.0531,0.0526,0.0534,0.0532,0.054,0.0539,0.0552,0.0554,0.0554,0.0553,0.0554,0.0554,0.0557,0.0555,0.0553,0.0553,0.0553,0.0552,0,0.0496,0.0496,0.0511,0.0515,0.0516,0.0526,0.0529,0.0537,0.0537,0.0548,0.055,0.0551,0.056,0.0559,0.057,0.0569,0.0584,0.0582,0.0583,0.0582,0.0592,0.0591,0.0627,0.0631,0.06,0.0601,0.0601,0,0.0513,0.0523,0.0527,0.0533,0.0536,0.0544,0.055,0.0547,0.0553,0.0559,0.0566,0.0574,0.0581,0.0595,0.0597,0.0604,0.0602,0.0614,0.0603,0.0603,0.0601,0.0601,0.0601,0.0616,0.0616,0.0617,0.0617,0,0.0543,0.0542,0.055,0.0557,0.0563,0.0569,0.0574,0.0579,0.0577,0.0584,0.0592,0.0598,0.0607,0.0616,0.0623,0.0625,0.062,0.062,0.0623,0.0624,0.0623,0.0623,0.0588,0.0619,0.0619,0.0619,0.0619,0.0619,0.0565,0.0573,0.0577,0.0585,0.0589,0.0594,0.0601,0.0602,0.0609,0.0617,0.0615,0.0625,0.0629,0.0638,0.0641,0.0648,0.0644,0.0648,0.0649,0.065,0.0651,0.0622,0.0649,0.0649,0.0649,0.0649,0.0649,0,0.0594,0.0596,0.0604,0.0611,0.0617,0.0612,0.0618,0.0623,0.0632,0.0636,0.0642,0.0652,0.066,0.0661,0.0668,0.0674,0.0672,0.0676,0.0675,0.0675,0.0654,0.0651,0.0677,0.0677,0.0677,0.0677,0.0677,0.0677,0.061,0.0623,0.0622,0.0637,0.0639,0.0648,0.0651,0.0655,0.0659,0.067,0.0676,0.0677,0.0679,0.0686,0.0693,0.0693,0.0696,0.07,0.07,0.068,0.0677,0.0674,0.0671,0.0701,0.0701,0.072,0.072,0.072]},{"header":{"parameterUnit":"m.s-1","parameterCategory":1,"la1":30.2991,"la2":30.254,"lo1":-89.0895,"lo2":-89.0444,"dy":0.0017,"dx":0.0017,"nx":28,"ny":28,"refTime":"2024-02-14T03:00:00:Z","depth":0,"parameterNumber":3,"parameterNumberName":"V-component_of_WINDS"},"data":[0,0,0,0,0,0,0,0,0,0,0,0,0,0,0,0,0,0,0,0,0,0,0,0,0,0,0,0,0,0,0,0,0,0,0,0,0,0,0,0,0,0,0,0,0,0,0,0,0,0,0,0,0,0,0,0,0,0,0.7824,0.7827,0,0.8087,0.809,0.8093,0.8186,0.8185,0.8184,0.8183,0.8449,0.8457,0.8465,0,0,0,0,0,0,0,0,0,0,0,0,0,0.7397,0.7404,0.7824,0.7827,0.783,0.8087,0.8091,0.8094,0.8186,0.8185,0.8184,0.8183,0.8447,0.8456,0.8466,0,0,0,0,0,0,0,0,0,0,0,0,0,0.7613,0.7407,0.7823,0.7907,0.7918,0.8086,0.8091,0.8095,0.8187,0.8185,0.8184,0.8182,0.8444,0.8455,0.8467,0.857,0,0,0.8504,0.8509,0,0,0,0,0,0,0,0,0.7601,0.7629,0.7892,0.7902,0.7914,0.8103,0.8038,0.8254,0.8187,0.8084,0.8183,0.8182,0.8335,0.8356,0.8408,0.8583,0.8594,0.8505,0.8512,0.8517,0.8521,0,0,0,0,0,0,0,0.7586,0.7618,0.7928,0.7895,0.7909,0.7931,0.796,0.8079,0.8214,0.8093,0.8101,0.8131,0.8341,0.8396,0.8415,0.8598,0.8504,0.8515,0.8522,0.8527,0.8869,0.8871,0,0,0,0,0,0,0.7557,0.7605,0.792,0.7936,0.7751,0.794,0.7972,0.8043,0.8213,0.8238,0.8132,0.8134,0.8377,0.8401,0.8425,0.8557,0.8517,0.8528,0.8535,0.8867,0.887,0.8872,0,0,0,0,0,0,0.7548,0.7584,0.7909,0.7773,0.7816,0.7949,0.8028,0.8049,0.8105,0.8243,0.8267,0.8164,0.8377,0.8408,0.8534,0.8567,0.8534,0.8545,0.8865,0.8868,0.8871,0.8821,0,0,0,0,0,0,0.7535,0.758,0.7622,0.7773,0.7823,0.8014,0.803,0.8055,0.8126,0.8132,0.828,0.8303,0.8378,0.8515,0.8545,0.8583,0.8554,0.8863,0.8866,0.887,0.882,0.8822,0.8823,0,0,0,0,0,0.7519,0.7597,0.7624,0.7661,0.7877,0.8016,0.8044,0.8131,0.8129,0.8171,0.8259,0.8298,0.8558,0.8527,0.8562,0.8604,0.8861,0.8865,0.887,0.8819,0.8821,0.8823,0,0,0,0,0,0,0.7445,0.7618,0.765,0.7778,0.7882,0.8032,0.8088,0.813,0.8235,0.8236,0.8337,0.837,0.8487,0.8558,0.852,0.8712,0.8712,0.8723,0.8662,0.8665,0.8666,0.8647,0.8564,0,0,0,0,0,0.7444,0.7543,0.7688,0.7788,0.7838,0.7954,0.8017,0.8075,0.8186,0.823,0.8327,0.8432,0.8538,0.8605,0.871,0.883,0.8864,0.8876,0.8878,0.8878,0.8887,0.8955,0.8963,0.8886,0.8886,0.8886,0,0,0.7442,0.7549,0.7605,0.7776,0.7863,0.7962,0.799,0.8094,0.8169,0.8245,0.837,0.8445,0.8568,0.8692,0.8751,0.8755,0.8915,0.8884,0.8883,0.8892,0.8961,0.8968,0.8974,0.8889,0.8888,0.8888,0,0,0.749,0.7581,0.7674,0.776,0.7892,0.7968,0.799,0.8134,0.8187,0.8314,0.8373,0.8462,0.8642,0.8728,0.8795,0.8874,0.8913,0.8905,0.8913,0.8978,0.8984,0.899,0.9018,0.9027,0.8913,0.8913,0.8913,0,0.7471,0.7625,0.7715,0.7817,0.789,0.7964,0.8059,0.8138,0.8296,0.8344,0.8346,0.8573,0.8662,0.8806,0.8825,0.8877,0.8905,0.8889,0.8976,0.8983,0.899,0.9018,0.9028,0.8911,0.8911,0.8912,0.8912,0,0.7594,0.77,0.7759,0.7911,0.799,0.8087,0.8192,0.8261,0.8311,0.8386,0.8514,0.8623,0.8751,0.8789,0.8839,0.894,0.8938,0.8957,0.8959,0.8994,0.9022,0.9033,0.8908,0.8909,0.891,0.891,0,0,0.7604,0.7805,0.7825,0.7895,0.8045,0.8128,0.8227,0.8354,0.8411,0.8517,0.8603,0.8753,0.8771,0.8847,0.8907,0.8964,0.9019,0.8976,0.898,0.898,0.9137,0.9123,0.9134,0.9046,0.9048,0.905,0.9127,0,0.7671,0.7855,0.7939,0.8084,0.8182,0.8254,0.834,0.8441,0.8514,0.8606,0.8686,0.8791,0.8807,0.8853,0.8913,0.9,0.9052,0.8995,0.9126,0.9129,0.9093,0.9148,0.9134,0.9201,0.9138,0.914,0.9142,0,0.7775,0.7883,0.8037,0.8176,0.822,0.8297,0.8419,0.8507,0.8622,0.8671,0.8755,0.8812,0.8918,0.8912,0.9059,0.9018,0.9076,0.9127,0.9131,0.9147,0.9138,0.9165,0.9224,0.9234,0.916,0.9158,0.9157,0,0.7766,0.795,0.8066,0.8124,0.8288,0.834,0.841,0.8524,0.8594,0.8701,0.8747,0.8863,0.8927,0.9015,0.9101,0.9089,0.924,0.9241,0.9282,0.928,0.9311,0.9308,0.938,0.9348,0.9348,0.9347,0.9347,0,0.7834,0.7925,0.8064,0.8136,0.8241,0.8336,0.8436,0.8512,0.8612,0.8699,0.8767,0.8846,0.8956,0.9048,0.9116,0.9227,0.9255,0.9297,0.9314,0.9292,0.9286,0.9331,0.9329,0.935,0.935,0.9349,0.9349,0,0.7842,0.7939,0.807,0.8215,0.8253,0.8324,0.8447,0.8519,0.8594,0.8703,0.8734,0.8852,0.8965,0.906,0.9207,0.9253,0.9368,0.9388,0.9329,0.9339,0.9375,0.937,0.9479,0.9498,0.9451,0.9452,0.9452,0,0.7879,0.7951,0.8104,0.8167,0.8237,0.8338,0.841,0.8506,0.8578,0.8714,0.8769,0.8887,0.8986,0.9162,0.9261,0.9374,0.9397,0.9427,0.9414,0.9389,0.9398,0.9392,0.94,0.9428,0.9428,0.9428,0.9428,0,0.7933,0.7978,0.808,0.8199,0.8283,0.8381,0.848,0.8528,0.8642,0.8719,0.8836,0.8913,0.9064,0.918,0.9303,0.9374,0.942,0.9431,0.9447,0.9424,0.9388,0.9408,0.9332,0.9428,0.9428,0.9428,0.9428,0.9428,0.7958,0.8025,0.8143,0.8254,0.8339,0.843,0.8505,0.859,0.8689,0.8821,0.887,0.8989,0.9102,0.9272,0.9344,0.9437,0.9443,0.9466,0.9472,0.9476,0.9472,0.9372,0.946,0.946,0.946,0.946,0.946,0,0.8016,0.8095,0.8196,0.8334,0.8421,0.8457,0.8569,0.8639,0.8743,0.8845,0.8941,0.9074,0.9187,0.9293,0.9411,0.9465,0.9489,0.9492,0.949,0.9505,0.946,0.9435,0.9471,0.9471,0.9471,0.9471,0.9471,0.9471,0.8057,0.8173,0.8231,0.8389,0.8468,0.8586,0.8647,0.8731,0.8812,0.8958,0.9052,0.9122,0.9225,0.935,0.9454,0.9483,0.9522,0.9521,0.9554,0.9511,0.9508,0.9506,0.9483,0.9529,0.9529,0.9592,0.9592,0.9593]}]]